Lid_Strength_Index
13 15 16 15 15 15 16 17 17 16 15 15 15 15 16 16 16 17 17 17 16 16 15 15 15 15 14 14 13 13 12 11 10 11 11 12 14 14 14 14 14 13 13 12
16 17 14 14 15 16 17 18 18 16 15 15 16 16 17 17 17 17 17 17 16 16 16 16 16 16 16 15 14 14 13 13 12 12 13 13 14 15 15 15 15 15 14 14
17 15 14 15 16 17 18 18 18 17 16 16 17 17 18 17 17 16 16 16 16 16 17 17 17 17 16 16 16 15 15 14 14 13 13 14 14 15 15 15 15 15 15 14
16 14 14 16 16 16 18 16 16 16 17 18 17 20 18 18 18 17 17 17 17 17 17 17 17 17 17 17 16 15 15 15 15 14 15 15 16 16 16 15 15 14 14 14
15 15 16 16 15 15 16 15 16 16 17 19 18 20 18 18 19 18 17 17 17 16 17 17 17 17 17 16 16 15 15 15 15 15 14 15 15 15 15 14 14 14 14 13
14 14 14 14 15 14 15 16 16 18 19 21 18 18 18 19 17 17 16 16 16 16 16 16 16 16 17 16 16 15 15 15 14 14 14 15 15 15 14 15 15 14 14 14
16 15 15 14 16 15 16 17 20 21 21 20 19 19 17 16 16 15 16 16 16 16 16 16 17 17 17 17 16 15 15 15 14 14 14 14 14 14 14 14 14 14 14 14
17 18 15 14 15 16 17 16 19 23 23 21 18 20 16 16 15 14 14 15 15 16 16 16 16 16 16 16 16 15 15 15 14 14 14 14 14 14 14 13 13 14 13 13
18 17 15 15 15 14 17 18 16 20 21 22 19 17 16 17 17 16 16 16 16 16 16 16 16 16 16 16 16 15 15 15 15 14 14 14 13 13 14 14 13 13 13 13
15 17 16 16 15 15 16 15 18 19 24 25 20 19 17 18 17 17 16 16 16 16 16 16 15 16 15 15 15 15 15 15 14 14 14 14 14 14 14 14 14 14 14 14
14 15 17 15 16 17 17 17 17 17 19 22 24 20 16 15 15 17 16 15 15 15 15 15 15 15 15 15 15 15 15 15 15 14 14 14 14 14 14 14 14 14 14 14
13 15 19 17 16 15 16 16 16 18 20 20 20 18 15 14 15 15 15 14 14 14 14 14 15 15 15 15 15 15 15 15 14 14 14 14 14 14 14 14 14 14 14 14
13 15 19 19 17 16 16 16 16 16 18 20 20 18 15 15 15 15 15 14 14 14 15 15 15 15 15 15 15 15 15 14 14 14 14 14 14 14 14 14 14 14 14 15
10 15 16 17 17 16 17 16 16 15 21 17 17 15 16 15 15 15 15 14 14 14 15 15 14 14 14 14 15 15 15 14 14 14 14 14 14 14 14 15 15 15 16 16
12 15 15 18 17 16 17 17 16 16 14 15 14 15 14 13 13 13 13 14 15 15 15 15 14 14 14 14 15 15 15 14 14 14 14 14 14 15 15 16 16 16 16 17
14 15 16 18 17 17 18 17 16 15 14 14 14 15 12 12 13 13 13 14 14 14 14 14 14 13 14 13 14 14 14 14 14 14 15 15 15 16 16 17 17 17 17 18
15 17 17 17 19 18 18 17 17 16 16 13 16 12 13 14 13 13 13 14 13 13 14 15 13 13 13 13 13 13 14 14 14 15 15 16 17 17 18 18 18 19 19 19
16 16 16 24 21 22 18 21 18 15 14 15 17 17 14 13 14 14 14 14 14 14 14 14 13 13 13 13 13 13 14 14 15 16 17 17 18 19 19 19 19 20 19 20
17 16 20 21 21 19 19 21 19 18 18 16 14 15 17 17 17 16 16 15 14 14 14 14 13 13 13 13 13 14 15 15 16 17 17 18 19 20 20 22 20 20 20 20
16 16 15 22 22 22 19 21 19 17 21 19 14 14 18 18 20 17 16 16 15 15 14 13 13 13 13 14 14 15 16 17 18 17 17 18 19 21 22 21 21 20 20 20
20 20 18 19 20 20 19 19 18 21 19 19 18 18 18 18 17 16 16 16 15 14 14 14 14 13 14 15 16 17 18 18 18 18 19 19 20 21 21 21 21 21 22 21
19 19 21 21 20 21 19 19 18 16 18 18 18 17 17 17 16 16 15 14 14 14 14 13 14 15 16 16 16 17 18 18 19 19 19 21 23 22 21 26 23 23 23 24
20 17 19 18 18 18 16 16 15 14 16 17 16 16 16 16 16 15 15 15 14 14 14 15 15 17 18 18 17 18 18 18 19 21 24 25 24 22 23 25 23 23 23 23
20 19 20 19 18 17 16 15 15 14 15 14 14 15 15 15 14 15 15 14 15 14 15 17 17 17 18 19 18 19 19 19 23 25 24 23 24 23 23 21 21 22 23 22
17 18 20 20 18 16 15 14 13 13 14 14 14 14 13 14 15 14 14 15 15 14 16 16 16 16 17 19 20 21 20 22 23 24 23 23 23 24 22 21 21 20 19 19
17 18 19 20 16 15 14 12 12 13 13 13 13 14 14 13 13 14 15 14 14 15 16 17 17 17 19 19 20 22 23 23 23 22 22 22 22 22 21 21 21 17 15 13